Location: San Vito
(41.8833°N, 12.9833°E)
Time: 09:17:58
(UTC+00:00)

SJ-12 - Pass Details

Date: 17 November 2019
Orbit: 570 x 585 km, 97.6° (Epoch: 10 December)

Event Time Altitude Azimuth Distance (km) Brightness Sun altitude
Rises 04:23:04 0° 12° (NNE) 2,819 7.5 -17.9°
Reaches altitude 10° 04:25:14 10° 13° (NNE) 1,915 6.6 -17.5°
Maximum altitude 04:29:24 85° 103° (ESE) 593 3.9 -16.8°
Drops below altitude 10° 04:33:32 10° 192° (SSW) 1,898 6.6 -16.0°
Sets 04:35:40 0° 193° (SSW) 2,792 7.4 -15.6°
